Time,TemperatureF,DewpointF,PressureIn,WindDirection,WindDirectionDegrees,WindSpeedMPH,WindSpeedGustMPH,Humidity,HourlyPrecipIn,Conditions,Clouds,dailyrainin,SoftwareType,DateUTC
2013-12-22 00:12:00,38.0,37.0,29.55,NE,47,2.0,5.0,96,0.05,,,1.92,,2013-12-22 05:12:00,
2013-12-22 00:22:00,38.0,37.0,29.51,East,98,6.0,13.0,96,0.05,,,1.93,,2013-12-22 05:22:00,
2013-12-22 00:43:00,38.0,37.0,29.41,East,84,12.0,18.0,97,0.04,,,1.91,,2013-12-22 05:43:00,
2013-12-22 00:53:00,39.0,38.0,29.42,NNE,24,4.0,15.0,97,0.03,,,1.92,,2013-12-22 05:53:00,
2013-12-22 01:12:00,39.0,38.0,29.45,NNW,338,7.0,13.0,97,0.02,,,1.92,,2013-12-22 06:12:00,
2013-12-22 01:22:00,38.0,37.0,29.53,NNW,328,8.0,17.0,96,0.01,,,1.92,,2013-12-22 06:22:00,
2013-12-22 01:42:00,37.0,36.0,29.47,NNE,24,7.0,11.0,96,0.00,,,1.92,,2013-12-22 06:42:00,
2013-12-22 01:52:00,37.0,36.0,29.51,NNE,17,6.0,12.0,96,0.00,,,1.92,,2013-12-22 06:52:00,
2013-12-22 02:11:00,37.0,36.0,29.52,North,5,2.0,8.0,96,0.00,,,1.92,,2013-12-22 07:11:00,
2013-12-22 02:22:00,37.0,36.0,29.49,North,355,3.0,5.0,97,0.00,,,1.92,,2013-12-22 07:22:00,
2013-12-22 02:42:00,37.0,36.0,29.52,NNW,329,2.0,8.0,97,0.01,,,1.88,,2013-12-22 07:42:00,
2013-12-22 02:52:00,37.0,36.0,29.51,NNW,342,2.0,4.0,97,0.01,,,1.88,,2013-12-22 07:52:00,
2013-12-22 03:11:00,37.0,36.0,29.52,NE,36,0.0,2.0,97,0.01,,,1.88,,2013-12-22 08:11:00,
2013-12-22 03:22:00,37.0,36.0,29.52,NE,36,0.0,2.0,97,0.01,,,1.88,,2013-12-22 08:22:00,
2013-12-22 03:42:00,37.0,36.0,29.52,NE,36,0.0,1.0,97,0.00,,,1.74,,2013-12-22 08:42:00,
2013-12-22 03:52:00,37.0,36.0,29.54,SW,227,1.0,3.0,97,0.01,,,1.75,,2013-12-22 08:52:00,
2013-12-22 04:11:00,38.0,37.0,29.54,SW,227,0.0,2.0,97,0.01,,,1.75,,2013-12-22 09:11:00,
2013-12-22 04:22:00,38.0,37.0,29.56,SW,227,0.0,3.0,97,0.01,,,1.75,,2013-12-22 09:22:00,
2013-12-22 04:43:00,42.0,41.0,29.55,SSW,200,4.0,10.0,98,0.01,,,1.70,,2013-12-22 09:43:00,
2013-12-22 04:54:00,43.0,42.0,29.55,SW,219,6.0,14.0,98,0.00,,,1.70,,2013-12-22 09:54:00,
2013-12-22 05:13:00,42.0,41.0,29.57,SW,222,10.0,18.0,98,0.00,,,1.70,,2013-12-22 10:13:00,
2013-12-22 05:23:00,41.0,40.0,29.57,SW,221,10.0,19.0,97,0.00,,,1.70,,2013-12-22 10:23:00,
2013-12-22 05:42:00,41.0,40.0,29.57,SW,236,10.0,17.0,96,0.00,,,1.65,,2013-12-22 10:42:00,
2013-12-22 05:53:00,41.0,40.0,29.59,SSW,213,9.0,17.0,96,0.00,,,1.65,,2013-12-22 10:53:00,
2013-12-22 06:22:00,39.0,38.0,29.61,WSW,250,11.0,19.0,95,0.00,,,1.65,,2013-12-22 11:22:00,
2013-12-22 06:42:00,39.0,38.0,29.62,WSW,238,10.0,19.0,96,0.00,,,1.47,,2013-12-22 11:42:00,
2013-12-22 06:52:00,39.0,38.0,29.64,SW,232,8.0,17.0,96,0.00,,,1.47,,2013-12-22 11:52:00,
2013-12-22 07:22:00,39.0,38.0,29.66,SW,229,7.0,13.0,96,0.00,,,1.47,,2013-12-22 12:22:00,
2013-12-22 07:52:00,39.0,38.0,29.68,SSW,207,9.0,16.0,96,0.00,,,1.44,,2013-12-22 12:52:00,
2013-12-22 08:12:00,39.0,38.0,29.69,SW,216,6.0,13.0,96,0.00,,,1.44,,2013-12-22 13:12:00,
2013-12-22 08:22:00,39.0,38.0,29.70,SW,229,10.0,17.0,96,0.00,,,1.44,,2013-12-22 13:22:00,
2013-12-22 08:42:00,39.0,38.0,29.72,SW,214,10.0,19.0,96,0.00,,,1.42,,2013-12-22 13:42:00,
2013-12-22 08:52:00,39.0,38.0,29.73,WSW,241,9.0,20.0,96,0.00,,,1.42,,2013-12-22 13:52:00,
2013-12-22 09:12:00,39.0,38.0,29.73,SW,234,9.0,18.0,95,0.00,,,1.42,,2013-12-22 14:12:00,
2013-12-22 09:22:00,39.0,38.0,29.75,SW,234,10.0,17.0,95,0.00,,,1.42,,2013-12-22 14:22:00,
2013-12-22 09:42:00,39.0,37.0,29.76,West,264,9.0,16.0,94,0.00,,,1.29,,2013-12-22 14:42:00,
2013-12-22 09:52:00,39.0,37.0,29.77,SW,236,9.0,23.0,94,0.00,,,1.29,,2013-12-22 14:52:00,
2013-12-22 10:11:00,39.0,37.0,29.78,SW,224,15.0,23.0,93,0.00,,,1.29,,2013-12-22 15:11:00,
2013-12-22 10:22:00,39.0,37.0,29.79,WSW,241,7.0,17.0,93,0.00,,,1.29,,2013-12-22 15:22:00,
2013-12-22 10:43:00,39.0,37.0,29.80,SW,219,10.0,19.0,92,0.00,,,1.17,,2013-12-22 15:43:00,
2013-12-22 10:53:00,39.0,37.0,29.80,SW,227,13.0,17.0,92,0.00,,,1.17,,2013-12-22 15:53:00,
2013-12-22 11:13:00,39.0,37.0,29.82,West,271,12.0,20.0,92,0.00,,,1.17,,2013-12-22 16:13:00,
2013-12-22 11:23:00,39.0,37.0,29.82,WSW,240,9.0,16.0,91,0.00,,,1.17,,2013-12-22 16:23:00,
2013-12-22 11:42:00,39.0,37.0,29.83,SW,216,10.0,18.0,91,0.00,,,1.09,,2013-12-22 16:42:00,
2013-12-22 11:52:00,39.0,37.0,29.83,WSW,246,8.0,17.0,91,0.00,,,1.09,,2013-12-22 16:52:00,
2013-12-22 12:22:00,38.0,36.0,29.85,SW,224,9.0,17.0,91,0.00,,,1.09,,2013-12-22 17:22:00,
2013-12-22 12:42:00,38.0,36.0,29.86,WSW,248,9.0,16.0,91,0.00,,,1.03,,2013-12-22 17:42:00,
2013-12-22 12:52:00,38.0,36.0,29.86,WSW,249,10.0,20.0,92,0.00,,,1.03,,2013-12-22 17:52:00,
2013-12-22 13:12:00,37.0,35.0,29.86,WSW,240,11.0,18.0,92,0.00,,,1.03,,2013-12-22 18:12:00,
2013-12-22 13:22:00,37.0,35.0,29.86,SW,236,11.0,17.0,92,0.00,,,1.03,,2013-12-22 18:22:00,
2013-12-22 13:42:00,37.0,35.0,29.87,SW,219,8.0,16.0,92,0.00,,,0.96,,2013-12-22 18:42:00,
2013-12-22 13:52:00,37.0,35.0,29.87,SW,219,8.0,15.0,93,0.00,,,0.96,,2013-12-22 18:52:00,
2013-12-22 14:12:00,37.0,35.0,29.87,SW,234,9.0,16.0,93,0.00,,,0.96,,2013-12-22 19:12:00,
2013-12-22 14:22:00,37.0,35.0,29.88,WSW,246,9.0,13.0,94,0.00,,,0.96,,2013-12-22 19:22:00,
2013-12-22 14:42:00,37.0,35.0,29.88,SW,229,11.0,17.0,93,0.00,,,0.84,,2013-12-22 19:42:00,
2013-12-22 14:52:00,37.0,35.0,29.88,WSW,242,6.0,14.0,93,0.00,,,0.84,,2013-12-22 19:52:00,
2013-12-22 15:11:00,37.0,35.0,29.88,WSW,239,6.0,14.0,93,0.00,,,0.84,,2013-12-22 20:11:00,
2013-12-22 15:22:00,36.0,34.0,29.89,SW,228,11.0,18.0,92,0.00,,,0.84,,2013-12-22 20:22:00,
2013-12-22 15:53:00,36.0,34.0,29.91,SW,219,9.0,16.0,91,0.00,,,0.79,,2013-12-22 20:53:00,
2013-12-22 16:12:00,36.0,34.0,29.91,SW,227,7.0,14.0,91,0.00,,,0.79,,2013-12-22 21:12:00,
2013-12-22 16:22:00,36.0,34.0,29.91,SW,227,7.0,14.0,91,0.00,,,0.79,,2013-12-22 21:22:00,
2013-12-22 16:43:00,36.0,34.0,29.93,SW,216,3.0,14.0,93,0.00,,,0.75,,2013-12-22 21:43:00,
2013-12-22 16:53:00,35.0,33.0,29.94,SW,225,5.0,12.0,93,0.00,,,0.75,,2013-12-22 21:53:00,
2013-12-22 17:13:00,34.0,32.0,29.95,SW,227,5.0,12.0,94,0.00,,,0.75,,2013-12-22 22:13:00,
2013-12-22 17:23:00,34.0,32.0,29.95,WSW,237,5.0,11.0,94,0.00,,,0.75,,2013-12-22 22:23:00,
2013-12-22 17:42:00,34.0,32.0,29.95,WSW,240,3.0,7.0,94,0.00,,,0.72,,2013-12-22 22:42:00,
2013-12-22 17:53:00,34.0,32.0,29.96,WSW,238,4.0,12.0,94,0.00,,,0.72,,2013-12-22 22:53:00,
2013-12-22 18:12:00,34.0,32.0,29.96,WSW,249,3.0,10.0,93,0.00,,,0.72,,2013-12-22 23:12:00,
2013-12-22 18:22:00,34.0,32.0,29.97,WSW,243,4.0,11.0,92,0.00,,,0.72,,2013-12-22 23:22:00,
2013-12-22 18:42:00,34.0,32.0,29.97,West,281,4.0,10.0,92,0.00,,,0.68,,2013-12-22 23:42:00,
2013-12-22 18:53:00,34.0,32.0,29.98,WSW,250,6.0,9.0,91,0.00,,,0.68,,2013-12-22 23:53:00,
2013-12-22 19:11:00,34.0,32.0,29.99,SW,218,1.0,8.0,91,0.00,,,0.68,,2013-12-23 00:11:00,
2013-12-22 19:22:00,34.0,31.0,30.00,West,269,4.0,11.0,90,0.00,,,0.68,,2013-12-23 00:22:00,
2013-12-22 19:42:00,34.0,31.0,30.00,WSW,256,3.0,10.0,90,0.00,,,0.61,,2013-12-23 00:42:00,
2013-12-22 19:52:00,34.0,31.0,30.01,SW,221,3.0,8.0,90,0.00,,,0.61,,2013-12-23 00:52:00,
2013-12-22 20:11:00,34.0,31.0,30.01,WSW,241,3.0,9.0,90,0.00,,,0.61,,2013-12-23 01:11:00,
2013-12-22 20:22:00,34.0,32.0,30.02,WSW,241,6.0,11.0,91,0.00,,,0.61,,2013-12-23 01:22:00,
2013-12-22 20:42:00,34.0,32.0,30.02,SW,228,5.0,10.0,91,0.00,,,0.43,,2013-12-23 01:42:00,
2013-12-22 20:52:00,33.0,31.0,30.02,West,271,3.0,9.0,92,0.00,,,0.43,,2013-12-23 01:52:00,
2013-12-22 21:12:00,33.0,31.0,30.03,WSW,247,3.0,11.0,92,0.00,,,0.43,,2013-12-23 02:12:00,
2013-12-22 21:21:00,33.0,31.0,30.04,SW,236,4.0,11.0,92,0.00,,,0.43,,2013-12-23 02:21:00,
2013-12-22 21:42:00,33.0,31.0,30.04,WSW,246,3.0,8.0,92,0.00,,,0.24,,2013-12-23 02:42:00,
2013-12-22 21:52:00,32.0,30.0,30.05,West,278,3.0,8.0,91,0.00,,,0.24,,2013-12-23 02:52:00,
2013-12-22 22:12:00,32.0,30.0,30.05,SW,236,2.0,9.0,92,0.00,,,0.24,,2013-12-23 03:12:00,
2013-12-22 22:22:00,32.0,30.0,30.05,WNW,295,4.0,9.0,92,0.00,,,0.24,,2013-12-23 03:22:00,
2013-12-22 22:43:00,32.0,30.0,30.06,WSW,250,1.0,8.0,92,0.00,,,0.15,,2013-12-23 03:43:00,
2013-12-22 22:53:00,31.0,29.0,30.06,WNW,282,3.0,9.0,92,0.00,,,0.15,,2013-12-23 03:53:00,
2013-12-22 23:13:00,31.0,29.0,30.06,West,260,1.0,15.0,92,0.00,,,0.15,,2013-12-23 04:13:00,
2013-12-22 23:23:00,31.0,29.0,30.07,West,264,3.0,10.0,92,0.00,,,0.15,,2013-12-23 04:23:00,
2013-12-22 23:43:00,31.0,29.0,30.07,West,273,4.0,13.0,92,0.00,,,0.07,,2013-12-23 04:43:00,
2013-12-22 23:52:00,31.0,29.0,30.09,NW,307,4.0,9.0,92,0.00,,,0.07,,2013-12-23 04:52:00,